Погода в Баргузине

Погода в Баргузине : погода сейчас, прогноз погоды и архив. Всё, что Вы хотите узнать о погоде в Баргузине!

Поиск расширенной информации на нашем сайте:

Другие новости

Новости СМИ2

Главная страница сайта

Новости сайта

03.07.2017

Напоминаем, что на нашем специализированном сайте Метеоцентр.Азия вы можете получить высокодетализированные автоматические прогнозы погоды по пунктам России, СНГ и мира в авиационном формате (включающие направление и скорость ветра, видимость, явления погоды, количество и форму облачности, нижнюю и верхнюю границу облачности).

Рекомендуем: Продам сайт smssend.

Погода в Баргузине - сегодня

Время (UTC), дата Ветер
(°,м/с) 
Видим.   Явления Облачность Т
(°С)
Тd
(°С)
f(%) Тe
(°С)
Pmin
(гПа)
dP
(гПа)
Po
(мм)
O2
(г/м3)
Тmin Tmax R s Состояние
почвы
03 21.09.17 тихо ()   10 км  слаб. ливневой дождь  10/8 1000 м кучево-дожд., средняя 
[Cb cap|As trans]
+9.3 +7.2 87 +9  1002.7  0.3  709  275           
06 21.09.17 тихо ()   20000 м  {ливн. осадки}  10/10 600 м кучево-дожд. 
[Cb cap]
+10.2 +7.2 82 +10  1001.6  -0.9  709  274           
09 21.09.17 тихо ()   20000 м  в посл. час ливневой дождь  10/10 600 м кучево-дожд. 
[Cb cap]
+9.5 +6.7 83 +10  1001.5  -0.3  708  275           
12 21.09.17 360 (С) н/о  {ливн. осадки}  10/10 600 м кучево-дожд. 
[Cb cap]
+8.2 +6 86 +9  1002.6  0.8  709  276    +10.5  0.5     
15 21.09.17 тихо ()   н/о    10/8 600 м кучево-дожд., средняя 
[Cb cap|Ac trans]
+6.9 +5 88 +7  1002.5  -0.4  709  278           
18 21.09.17 тихо ()   н/о    10/8 600 м кучево-дожд., средняя 
[Cb cap|Ac trans]
+5.7 +3.7 87 +6  1002.4  -0.3  708  279           
21 21.09.17 240 (ЮЗ) н/о    ясно 
+2 +1.4 96 +3  1002.4  -0.7  708  283           
00 22.09.17 тихо ()   20000 м    6/0 верхняя 
[Ci fib]
+2.5 +2.3 99 +3  1002  -0.3  708  282  -0        влажная 
03 22.09.17 230 (ЮЗ) 20000 м    6/0 верхняя 
[Ci fib]
+10.5 -3.7 37 +11  998.1  -2.2  706  274           
06 22.09.17 270 (З) 4{11}  20000 м    4/0 верхняя 
[Ci fib]
+11.9 -4.7 31 +11  997.5  -0.2  706  273           
09 22.09.17 270 (З) 3{11}  20000 м    6/0 верхняя 
[Ci fib]
+10.1 -4.9 34 +10  998.3  0.3  706  275           
12 22.09.17 270 (З) 4{10}  н/о    3/0 средняя 
[Ac lent]
+7.6 -5.5 39 +6  1000.2  1.3  707  278    +12.1       
15 22.09.17 250 (З) 2{10}  н/о    ясно 
+5.7 -2.7 55 +5  1001.6  708  280           
18 22.09.17 260 (З) н/о    ясно 
+4.2 -0.8 70 +5  1002.3  0.4  708  281           
21 22.09.17 250 (З) н/о    3/0 средняя 
[Ac trans]
+2.3 -1.3 77 +2  1004.1  1.3  709  283           
00 23.09.17 270 (З) 20000 м    6/0 средняя, верхняя 
[Ac lent|Ci fib]
+7.5 -2.6 49 +7  1003.8  0.8  710  279  +2.4         
03 23.09.17 270 (З) 3{10}  20000 м    8/3 600 м кучево-дожд., средняя, верхняя 
[Cb cap|Ac trans|Ci fib]
+10.3 -4.8 34 +10  1004.2  0.9  710  276           
06 23.09.17 300 (СЗ) 2{11}  20000 м    10/0 средняя, верхняя 
[Ac trans|Ci ing]
+10.8 -5.4 32 +11  1005.8  1.5  712  276           
09 23.09.17 260 (З) 3{11}  20000 м    10/6 1000 м средняя, верхняя 
[Sc|Ac trans|Ci fib]
+9.3 -6.5 32 +9  1007.8  1.6  713  278           
12 23.09.17 280 (З) н/о    6/0 средняя, верхняя 
[Ac trans|Ci fib]
+6.6 -5.8 41 +8  1010.5  714  282    +11.3       
15 23.09.17 250 (З) н/о    ясно 
+5.3 -6.5 42 +6  1011.6  0.8  715  283           
18 23.09.17 240 (ЮЗ) н/о    ясно 
+2.8 -4.2 60 +4  1012.6  0.4  715  286           
21 23.09.17 270 (З) н/о    ясно 
+1 -3.9 70 +2  1013.5  0.5  716  288           
00 24.09.17 070 (В) 20000 м    3/0 верхняя 
[Ci fib]
+0.4 -2.9 78 +1  1014.3  0.6  716  288  -1        сухая 
03 24.09.17 тихо ()   20000 м    10/0 верхняя 
[Cs]
+5.9 -3.1 52 +6  1012.3  -0.7  715  282           
Время (UTC), дата Ветер
(°,м/с) 
Видим.   Явления Облачность Т
(°С)
Тd
(°С)
f(%) Тe
(°С)
Pmin
(гПа)
dP
(гПа)
Po
(мм)
O2
(г/м3)
Тmin Tmax R s Состояние
почвы

Для получения пояснительной информации подведите курсор к названию столбца.

ПОГОДА в Баргузине - архив

Всё, что Вы хотите узнать о погоде в Баргузине - удобно и подробно!

Выберите нужную дату (начиная с 1 января 2015* года) и нажмите кнопку "Найти".
Будут отображены архивные сводки погоды по пункту Баргузин, начиная с указанной даты.


Отображать данные в формате CSV (для использования в таблицах Excel)


Внимание! Наш архив погоды предназначен исключительно для личного некоммерческого использования в познавательных целях. Если Вам необходимы официальные справки о состоянии погоды (для производственных, юридических, коммерческих и т.п. целей), обращайтесь в органы Росгидромета.

*Примечание: данная дата относится к архиву по метеостанциям СССР (Россия, СНГ, Балтия).
Архив по метеостанциям Зарубежной Европы и Азии (кроме Китая) хранится 10 дней, по другим регионам земного шара (Китай, Африка, Америка, Австралия, Океания) - 1 день.

Баргузин - район местоположения метеостанции


Название, широта, долгота, высота метеостанции:
Баргузин 53.6°ш. 109.6°д. 489 м над ур. моря [Российская Федерация]

Дополнительная информация

В oтличие oт бoльшинства пoгoдных сайтoв мы публикуем пoдрoбную метеoинфoрмацию в детальнoм прoфессиoнальнoм фoрмате.

Характеристики температуры и влажнoсти вoздуха измеряются на высoте 2 м в тени вдали oт зданий и деревьев.
Скoрoсть ветра измеряется на высoте 10 м (на урoвне рoста челoвека скoрoсть ветра ниже в 1.5-2 раза). Если метеoстанция нахoдится в гoрoде или в лесу, тo скoрoсть ветра занижена на 2-4 м/с пo сравнению с oткрытым местoм. Скoрoсть ветра над акватoриями крупных рек и oзёр, а также на вершинах хoлмoв на 2-5 м/с выше, чем в oбычных услoвиях.
Атмoсфернoе давление в разных тoчках местнoсти мoжет значительнo oтличаться oт давления на метеoстанции, в зависимoсти oт услoвий рельефа (при пoдъёме на 10 м давление пoнижается примернo на 1 мм рт.ст.).